Content
SEND FEEDBACK

Daily
Averages
Monthly
Summary
United States of America

RAPID CITY, SOUTH DAKOTA


Home > North America > United States > South Dakota
Elevation: 963 meters     Latitude: 44 03N     Longitude: 103 04W

WEATHER
 
SELECT A DAY
Number of Records: 200,374;   Date Range: 1/1/95 - 8/12/14
 
SHARE

PRINT THIS DATA

[ ← Previous Day ]
WEATHER ALMANAC - 16 JULY, 2013
[ Next Day → ]
[ °F ]   °C
Weather ElementAverageHighLow
Temperature25.7 °C33.3 °C (3:52 pm)17.2 °C (3:52 am)
Dewpoint10.8 °C13.9 °C (8:52 pm)8.9 °C (4:52 am)
Humidity41.9 %65 % (11:52 pm)23 % (2:52 pm)
Barometer1016.6 hPa1019.3 hPa (11:52 pm)1014.9 hPa (1:52 am)
Wind Speed17.7 km/h31.5 km/h (11:52 am)
Wind Gust37 km/h (10:52 am)
Weather ElementAverage
Visibility16.1 km
Wind DirectionSSE (171.3 °)

Weather ElementTotal
Precipitation---
Cooling Degree Days6.9 (Base 18.3)
Growing Degree Days15.3 (Base 10)
Averaged from 23 records on 16 July, 2013
WEATHER CONDITIONS BREAKOUT
WIND DIRECTION BREAKOUT
WEATHER BY HOUR - 16 JULY, 2013
[ °F ]   °C
Local TimeTemperatureDewpointHumidityBarometerVisibilityWind DirectionWind SpeedGust SpeedPrecipitationEventsConditions
1:52 AM20.6 °C10.6 °C53 %1014.9 hPa16.1 kmSSW (200°)18.5 km/hClear
2:52 AM18.9 °C10 °C56 %1015.2 hPa16.1 kmSouth (190°)16.7 km/hClear
3:52 AM17.2 °C9.4 °C60 %1015.2 hPa16.1 kmSSE (160°)14.8 km/hClear
4:52 AM17.8 °C8.9 °C56 %1015.6 hPa16.1 kmSouth (180°)14.8 km/hClear
5:52 AM17.2 °C9.4 °C60 %1016.3 hPa16.1 kmSouth (180°)20.4 km/hClear
6:52 AM18.9 °C10 °C56 %1016.6 hPa16.1 kmSouth (170°)16.7 km/hClear
7:52 AM22.8 °C10.6 °C46 %1016.6 hPa16.1 kmSouth (180°)18.5 km/hClear
8:52 AM25.6 °C11.1 °C40 %1016.9 hPa16.1 kmSouth (190°)20.4 km/hClear
9:52 AM28.3 °C11.1 °C34 %1016.6 hPa16.1 kmSouth (180°)25.9 km/hClear
10:52 AM30.6 °C10 °C28 %1016.9 hPa16.1 kmSouth (190°)25.9 km/h37 km/hClear
11:52 AM30.6 °C9.4 °C27 %1016.9 hPa16.1 kmSouth (180°)31.5 km/hClear
12:52 PM32.2 °C9.4 °C24 %1016.9 hPa16.1 kmSouth (190°)24.1 km/hClear
1:52 PM32.8 °C10 °C24 %1016.6 hPa16.1 kmSSE (160°)18.5 km/hClear
2:52 PM32.8 °C8.9 °C23 %1016.6 hPa16.1 kmSouth (180°)13 km/h33.3 km/hClear
3:52 PM33.3 °C10 °C24 %1016.6 hPa16.1 kmSouth (170°)16.7 km/h31.5 km/hClear
4:52 PM32.8 °C10.6 °C25 %1016.6 hPa16.1 kmSouth (190°)20.4 km/h29.6 km/hClear
5:52 PM32.2 °C11.1 °C27 %1016.3 hPa16.1 kmSouth (170°)16.7 km/h31.5 km/hClear
6:52 PM30.6 °C11.1 °C30 %1016.6 hPa16.1 kmSouth (170°)18.5 km/hClear
7:52 PM28.3 °C12.2 °C37 %1016.6 hPa16.1 kmSSE (160°)16.7 km/hClear
8:52 PM23.9 °C13.9 °C53 %1017.6 hPa16.1 kmSE (140°)11.1 km/hClear
9:52 PM22.8 °C13.3 °C55 %1018.6 hPa16.1 kmESE (120°)7.4 km/hClear
10:52 PM21.1 °C13.3 °C61 %1019 hPa16.1 kmSE (140°)7.4 km/hClear
11:52 PM20 °C13.3 °C65 %1019.3 hPa16.1 kmSSE (150°)11.1 km/hClear
Hourly data recorded from KRAP, located 0 kilometers away from Rapid City, South Dakota







STORIES FROM OUR PARTNERS